Home   Weather   Augusta   Past weeks

Flag for USA Past Weather in Augusta, Maine, USA — Yesterday and Last 2 Weeks

Now
39 °F

Passing clouds.


Feels Like: 36 °F
Forecast: 35 / 60 °F
Wind: 5 mph from North

Location: Augusta State Airport

Current Time: Apr 23, 2017 at 8:21:34 am

Latest Report: Apr 23, 2017 at 7:53 am


Visibility: 10 mi

Pressure: 30.03 "Hg

Humidity: 93%

Dew Point: 37 °F

Location of AugustaLocation

Past Weather in Augusta — Graph

°F

Augusta Temperature Yesterday

Maximum temperature yesterday: 39 °F (at 5:38 pm)
Minimum temperature yesterday: 34 °F (at 12:00 am)
Average temperature yesterday: 36 °F

High & Low Weather Summary for the Past Weeks

 TemperatureHumidityPressure
High80 °F (Apr 16, 4:53 pm)97% (Apr 20, 4:53 am)30.61 "Hg (Apr 20, 4:53 am)
Low31 °F (Apr 19, 4:53 am)15% (Apr 15, 1:53 pm)29.44 "Hg (Apr 8, 7:53 am)
Average46 °F68%30.09 "Hg
* Reported Apr 8 7:53 am — Apr 23 7:34 am, Augusta, Weather by CustomWeather, © 2017

Note: Actual official high and low records may vary slightly from our data, if they occured in-between our weather recording intervals... More about our weather records

Advertising

Augusta Weather History for the Previous 24 Hours

Scroll right to see more
 ConditionsComfort  
Time TempWeatherWind HumidityBarometerVisibility
7:34 am
Sun, Apr 23
37 °FFog.3 mph93%30.02 "Hg1 mi
6:53 am35 °FFog.3 mph92%30.01 "Hg0 mi
6:35 am36 °FFog.No wind92%29.99 "Hg1 mi
6:15 am35 °FFog.No wind96%29.98 "Hg0 mi
5:53 am36 °FFog.No wind92%29.99 "Hg0 mi
5:28 am36 °FFog.No wind92%29.98 "Hg1 mi
5:22 am36 °FFog.No wind92%29.97 "Hg2 mi
4:53 am36 °FOvercast.5 mph92%29.98 "Hg7 mi
4:22 am36 °FFog.5 mph92%29.96 "Hg3 mi
3:53 am36 °FFog.3 mph92%29.98 "Hg5 mi
3:12 am36 °FFog.3 mph92%29.97 "Hg2 mi
2:53 am36 °FFog.No wind92%29.97 "Hg5 mi
2:20 am36 °FFog.No wind92%29.95 "Hg6 mi
1:53 am37 °FLow clouds.3 mph93%29.96 "Hg8 mi
1:36 am37 °FMostly cloudy.No wind93%29.95 "Hg9 mi
1:23 am37 °FMostly cloudy.No wind93%29.95 "Hg8 mi
12:53 am37 °FMostly cloudy.5 mph93%29.96 "Hg10 mi
12:42 am37 °FLow clouds.5 mph93%29.95 "Hg10 mi
11:53 pm
Sat, Apr 22
37 °FLow clouds.5 mph93%29.96 "Hg10 mi
10:53 pm37 °FOvercast.5 mph93%29.97 "Hg7 mi
9:53 pm38 °FLow clouds.5 mph93%29.97 "Hg9 mi
9:18 pm38 °FLow clouds.3 mph93%29.96 "Hg10 mi
9:03 pm38 °FMostly cloudy.5 mph93%29.97 "Hg10 mi
7:53 pm38 °FOvercast.No wind93%29.97 "Hg10 mi
7:30 pm38 °FMostly cloudy.3 mph93%29.97 "Hg10 mi
7:13 pm39 °FMore clouds than sun.5 mph89%29.96 "Hg10 mi
7:07 pm39 °FMostly cloudy.5 mph89%29.96 "Hg10 mi
6:33 pm39 °FMostly cloudy.5 mph89%29.96 "Hg10 mi
5:53 pm39 °FCloudy.7 mph89%29.96 "Hg9 mi
5:38 pm39 °FFog.8 mph89%29.96 "Hg4 mi
5:17 pm38 °FFog.6 mph93%29.96 "Hg4 mi
4:53 pm38 °FFog.5 mph93%29.97 "Hg2 mi
4:42 pm38 °FFog.7 mph93%29.96 "Hg3 mi
4:39 pm38 °FLight rain. Fog.6 mph93%29.96 "Hg2 mi
3:53 pm38 °FLight rain. Fog.7 mph93%29.98 "Hg2 mi
3:16 pm38 °FLight rain. Fog.8 mph93%29.97 "Hg1 mi
2:31 pm38 °FFog.7 mph93%29.98 "Hg2 mi
2:15 pm38 °FFog.3 mph93%29.97 "Hg4 mi
1:53 pm38 °FFog.5 mph93%29.99 "Hg1 mi
12:53 pm38 °FFog.3 mph93%30.00 "Hg1 mi
12:27 pm38 °FFog.3 mph90%29.99 "Hg1 mi
11:53 am37 °FFog.5 mph93%30.01 "Hg1 mi
11:28 am37 °FFog.5 mph89%30.00 "Hg1 mi
10:53 am37 °FFog.3 mph89%30.03 "Hg3 mi
10:10 am37 °FFog.5 mph89%30.01 "Hg2 mi
10:03 am37 °FFog.5 mph89%30.02 "Hg3 mi
9:37 am36 °FFog.5 mph92%30.02 "Hg2 mi
8:53 am36 °FLow clouds.No wind89%30.04 "Hg8 mi
8:20 am35 °FFog.No wind92%30.03 "Hg2 mi
8:03 am35 °FFog.No wind92%30.04 "Hg3 mi
Weather by CustomWeather, © 2017

See weather overviewHow to use our weather pages